Weather History for Jefferson, NC

Change the Weather History Date:

Friday, January 23, 2004

  Actual Average Record
Temperature  
Mean Temperature 22 °F -  
Max Temperature 30 °F 43 °F 68 °F (1974)
Min Temperature 15 °F 22 °F 1 °F (2014)
Degree Days  
Heating Degree Days 42    
Moisture  
Dew Point -2 °F    
Average Humidity 34    
Maximum Humidity 55    
Minimum Humidity 18    
Precipitation  
Precipitation 0.00 in - - ()
Sea Level Pressure  
Sea Level Pressure 29.85 in    
Wind  
Wind Speed 33 mph (WNW)    
Max Wind Speed 48 mph    
Max Gust Speed 74 mph    
Visibility 10 miles    
Events      
Averages and records for this station are not official NWS values.
T = Trace of Precipitation, MM = Missing Value Source: NWS Daily Summary

Daily Weather History Graph

Daily Weather History Graph

Search for Another Location

Airport:

Trip Planner

Search our weather history database for the weather conditions in past years. The results will help you decide how hot, cold, wet, or windy it might be!

Date:

Astronomy

Jan. 23, 2004 Rise Set
Actual Time 7:33 AM EST 5:41 PM EST
Civil Twilight 7:05 AM EST 6:09 PM EST
Nautical Twilight 6:34 AM EST 6:40 PM EST
Astronomical Twilight 6:03 AM EST 7:11 PM EST
Moon 9:10 AM EST (1/23) 7:50 PM EST (1/23)
Length of Visible Light 11h 03m
Length of Day
10h 08m
Waxing Crescent, 4% of the Moon is Illuminated
Jan 23
Waxing Crescent
Jan 29
First Quarter
Feb 6
Full
Feb 13
Last Quarter
Feb 20
New

Hourly Weather History & Observations

Time (EST) Temp. Windchill Dew Point Humidity Pressure Visibility Wind Dir Wind Speed Gust Speed Precip Events Conditions
12:00 AM 24.8 °F 5.1 °F -4.0 °F 28% 29.71 in 10.0 mi WNW 43.7 mph 69.0 mph N/A   Clear
12:21 AM 23.0 °F 2.0 °F -5.8 °F 28% 29.70 in 10.0 mi WNW 47.2 mph 73.6 mph N/A   Clear
12:40 AM 23.0 °F 2.8 °F -7.6 °F 26% 29.73 in 10.0 mi WNW 42.6 mph 65.6 mph N/A   Clear
1:00 AM 21.2 °F 0.7 °F -5.8 °F 30% 29.72 in 10.0 mi WNW 40.3 mph 57.5 mph N/A   Clear
1:20 AM 21.2 °F 0.1 °F -5.8 °F 30% 29.72 in 10.0 mi WNW 43.7 mph 63.3 mph N/A   Clear
1:42 AM 21.2 °F -0.7 °F -5.8 °F 30% 29.73 in 10.0 mi WNW 48.3 mph 64.4 mph N/A   Clear
2:00 AM 21.2 °F 1.7 °F -5.8 °F 30% 29.73 in 10.0 mi WNW 35.7 mph 66.7 mph N/A   Clear
2:20 AM 19.4 °F -1.6 °F -5.8 °F 33% 29.72 in 10.0 mi WNW 39.1 mph 57.5 mph N/A   Clear
2:40 AM 19.4 °F -2.0 °F -5.8 °F 33% 29.73 in 10.0 mi WNW 41.4 mph 64.4 mph N/A   Clear
3:00 AM 19.4 °F -1.8 °F -2.2 °F 39% 29.73 in 10.0 mi WNW 40.3 mph 58.7 mph N/A   Clear
3:20 AM 19.4 °F -3.1 °F -2.2 °F 39% 29.73 in 10.0 mi WNW 47.2 mph 69.0 mph N/A   Clear
3:40 AM 19.4 °F -2.0 °F -4.0 °F 36% 29.75 in 10.0 mi WNW 41.4 mph 57.5 mph N/A   Clear
4:00 AM 17.6 °F -4.7 °F -4.0 °F 38% 29.75 in 10.0 mi WNW 42.6 mph 61.0 mph N/A   Clear
4:20 AM 17.6 °F -4.7 °F -5.8 °F 35% 29.76 in 10.0 mi WNW 42.6 mph 58.7 mph N/A   Clear
4:40 AM 17.6 °F -4.1 °F -2.2 °F 42% 29.78 in 10.0 mi WNW 39.1 mph 62.1 mph N/A   Clear
5:02 AM 17.6 °F -3.1 °F -2.2 °F 42% 29.79 in 10.0 mi NW 34.5 mph 55.2 mph N/A   Clear
5:20 AM 17.6 °F -4.5 °F -2.2 °F 42% 29.79 in 10.0 mi WNW 41.4 mph 55.2 mph N/A   Clear
5:40 AM 17.6 °F -3.6 °F -4.0 °F 38% 29.81 in 10.0 mi WNW 36.8 mph 55.2 mph N/A   Clear
6:00 AM 15.8 °F -6.1 °F -4.0 °F 41% 29.81 in 10.0 mi WNW 36.8 mph 52.9 mph N/A   Clear
6:20 AM 15.8 °F -6.3 °F -5.8 °F 38% 29.81 in 10.0 mi WNW 38.0 mph 51.8 mph N/A   Clear
6:40 AM 15.8 °F -6.6 °F -7.6 °F 35% 29.82 in 10.0 mi WNW 39.1 mph 50.6 mph N/A   Clear
7:00 AM 15.8 °F -4.4 °F -7.6 °F 35% 29.84 in 10.0 mi WNW 29.9 mph 52.9 mph N/A   Clear
7:20 AM 15.8 °F -6.3 °F -7.6 °F 35% 29.83 in 10.0 mi WNW 38.0 mph 57.5 mph N/A   Clear
7:42 AM 15.8 °F -4.7 °F -5.8 °F 38% 29.85 in 10.0 mi WNW 31.1 mph 50.6 mph N/A   Clear
8:00 AM 15.8 °F -5.2 °F -5.8 °F 38% 29.86 in 10.0 mi WNW 33.4 mph 51.8 mph N/A   Clear
8:20 AM 15.8 °F -4.1 °F -5.8 °F 38% 29.87 in 10.0 mi WNW 28.8 mph 46.0 mph N/A   Clear
8:42 AM 15.8 °F -4.4 °F -9.4 °F 32% 29.88 in 10.0 mi WNW 29.9 mph 46.0 mph N/A   Clear
9:02 AM 15.8 °F -3.4 °F -7.6 °F 35% 29.90 in 10.0 mi WNW 26.5 mph 41.4 mph N/A   Clear
9:20 AM 17.6 °F -0.3 °F -7.6 °F 32% 29.91 in 10.0 mi WNW 24.2 mph 39.1 mph N/A   Clear
9:40 AM 17.6 °F 1.3 °F -7.6 °F 32% 29.92 in 10.0 mi WNW 19.6 mph 43.7 mph N/A   Clear
10:00 AM 19.4 °F 2.8 °F -9.4 °F 28% 29.92 in 10.0 mi NW 21.9 mph 39.1 mph N/A   Clear
10:20 AM 19.4 °F 2.1 °F -11.2 °F 25% 29.93 in 10.0 mi WNW 24.2 mph 42.6 mph N/A   Clear
10:42 AM 21.2 °F 3.9 °F -11.2 °F 24% 29.93 in 10.0 mi NW 26.5 mph 33.4 mph N/A   Clear
11:00 AM 21.2 °F 5.6 °F -13.0 °F 22% 29.95 in 10.0 mi WNW 20.7 mph 36.8 mph N/A   Clear
11:21 AM 23.0 °F 7.2 °F -14.8 °F 18% 29.94 in 10.0 mi NW 23.0 mph 34.5 mph N/A   Clear
11:41 AM 23.0 °F 7.2 °F -13.0 °F 20% 29.94 in 10.0 mi WNW 23.0 mph 39.1 mph N/A   Clear
12:00 PM 24.8 °F 10.0 °F -13.0 °F 19% 29.92 in 10.0 mi NW 21.9 mph 26.5 mph N/A   Clear
12:20 PM 26.6 °F 14.3 °F -9.4 °F 21% 29.92 in 10.0 mi WNW 16.1 mph 27.6 mph N/A   Clear
12:40 PM 26.6 °F 11.1 °F -7.6 °F 22% 29.91 in 10.0 mi NW 26.5 mph 34.5 mph N/A   Clear
1:00 PM 28.4 °F 14.7 °F -5.8 °F 23% 29.90 in 10.0 mi WNW 21.9 mph 29.9 mph N/A   Clear
1:20 PM 28.4 °F 17.0 °F -4.0 °F 25% 29.90 in 10.0 mi WNW 15.0 mph 38.0 mph N/A   Clear
1:40 PM 28.4 °F 14.7 °F -2.2 °F 27% 29.90 in 10.0 mi WNW 21.9 mph 35.7 mph N/A   Clear
2:00 PM 30.2 °F 16.5 °F 1.4 °F 29% 29.90 in 10.0 mi WNW 24.2 mph 42.6 mph N/A   Clear
2:21 PM 30.2 °F 16.8 °F 3.2 °F 32% 29.89 in 10.0 mi WNW 23.0 mph 31.1 mph N/A   Clear
2:40 PM 30.2 °F 19.8 °F 5.0 °F 34% 29.90 in 10.0 mi WNW 13.8 mph 31.1 mph N/A   Clear
3:01 PM 30.2 °F 21.9 °F 3.2 °F 32% 29.91 in 10.0 mi West 9.2 mph - N/A   Clear
3:20 PM 30.2 °F 22.6 °F 5.0 °F 34% 29.91 in 10.0 mi West 8.1 mph 18.4 mph N/A   Clear
3:40 PM 30.2 °F 18.9 °F 5.0 °F 34% 29.89 in 10.0 mi West 16.1 mph 20.7 mph N/A   Clear
4:00 PM 30.2 °F 18.9 °F 6.8 °F 37% 29.90 in 10.0 mi WNW 16.1 mph 25.3 mph N/A   Clear
4:20 PM 30.2 °F 21.9 °F 5.0 °F 34% 29.91 in 10.0 mi West 9.2 mph 16.1 mph N/A   Clear
4:41 PM 30.2 °F - 6.8 °F 37% 29.90 in 10.0 mi Calm Calm - N/A   Clear
5:02 PM 30.2 °F 26.7 °F 8.6 °F 40% 29.89 in 10.0 mi WSW 3.5 mph - N/A   Clear
5:20 PM 30.2 °F 21.9 °F 12.2 °F 47% 29.88 in 10.0 mi WSW 9.2 mph 17.3 mph N/A   Clear
5:40 PM 30.2 °F 22.6 °F 12.2 °F 47% 29.89 in 10.0 mi WSW 8.1 mph - N/A   Clear
6:03 PM 30.2 °F 22.6 °F 14.0 °F 51% 29.89 in 10.0 mi West 8.1 mph - N/A   Clear
6:20 PM 30.2 °F 25.4 °F 14.0 °F 51% 29.89 in 10.0 mi WSW 4.6 mph - N/A   Scattered Clouds
6:40 PM 30.2 °F - 14.0 °F 51% 29.88 in 10.0 mi Calm Calm - N/A   Clear
7:00 PM 30.2 °F - 14.0 °F 51% 29.88 in 10.0 mi Calm Calm - N/A   Clear
7:22 PM 30.2 °F - 15.8 °F 55% 29.87 in 10.0 mi Calm Calm - N/A   Clear
7:41 PM 32.0 °F - 15.8 °F 51% 29.87 in 10.0 mi Calm Calm - N/A   Clear
8:00 PM 32.0 °F 28.7 °F 14.0 °F 48% 29.87 in 10.0 mi WSW 3.5 mph - N/A   Clear
8:21 PM 35.6 °F 28.0 °F 14.0 °F 41% 29.86 in 10.0 mi West 10.4 mph 17.3 mph N/A   Clear
8:41 PM 35.6 °F 26.6 °F 12.2 °F 38% 29.85 in 10.0 mi West 13.8 mph 24.2 mph N/A   Clear
9:01 PM 35.6 °F 25.9 °F 12.2 °F 38% 29.84 in 10.0 mi West 16.1 mph 24.2 mph N/A   Clear
9:22 PM 35.6 °F 25.5 °F 10.4 °F 35% 29.83 in 10.0 mi West 17.3 mph 29.9 mph N/A   Scattered Clouds
9:41 PM 35.6 °F 23.7 °F 10.4 °F 35% 29.83 in 10.0 mi West 24.2 mph 36.8 mph N/A   Mostly Cloudy
10:03 PM 35.6 °F 23.2 °F 10.4 °F 35% 29.81 in 10.0 mi West 26.5 mph 36.8 mph N/A   Mostly Cloudy
10:21 PM 35.6 °F 24.2 °F 8.6 °F 33% 29.81 in 10.0 mi West 21.9 mph 35.7 mph N/A   Mostly Cloudy
10:41 PM 35.6 °F 22.7 °F 6.8 °F 30% 29.79 in 10.0 mi West 28.8 mph 41.4 mph N/A   Mostly Cloudy
11:01 PM 35.6 °F 21.5 °F 6.8 °F 30% 29.77 in 10.0 mi West 35.7 mph 51.8 mph N/A   Scattered Clouds
11:20 PM 35.6 °F 21.5 °F 6.8 °F 30% 29.77 in 10.0 mi WNW 35.7 mph 47.2 mph N/A   Clear
11:40 PM 33.8 °F 19.4 °F 6.8 °F 32% 29.76 in 10.0 mi WNW 33.4 mph 56.4 mph N/A   Clear